EW6005 Weather Reports


Display with metric or nautical units.
time (UTC)temp
F
wind
direction
speed
MPH
gust
MPH
rain 1hr
in
rain 24hr
in
rain mn
in
humidity
%
barometer
mb
20260502213311 74 0 1.0 3.0 0.00 0.32 0.01 62 1004.2
20260502212812 74 0 1.0 3.0 0.00 0.34 0.01 60 1004.2
20260502212311 74 0 1.0 3.0 0.00 0.36 0.01 59 1004.2
20260502211810 74 80 1.0 4.0 0.00 0.39 0.01 61 1004.2
20260502211533 74 42 1.0 4.0 0.00 0.40 0.01 61 1004.3
20260502210809 74 340 1.0 3.0 0.00 0.41 0.01 61 1004.3
20260502210533 74 0 1.0 3.0 0.00 0.42 0.01 62 1004.3
20260502205807 74 0 1.0 3.0 0.00 0.42 0.01 61 1004.4
20260502205307 74 0 1.0 4.0 0.00 0.43 0.01 63 1004.5
20260502204807 74 0 2.0 4.0 0.00 0.44 0.01 62 1004.5
20260502204308 74 0 2.0 4.0 0.00 0.45 0.01 60 1004.6
20260502203807 74 0 1.0 4.0 0.00 0.45 0.01 60 1004.6
20260502203308 74 0 2.0 5.0 0.00 0.45 0.01 63 1004.7
20260502202803 74 0 2.0 5.0 0.00 0.46 0.01 61 1004.7
20260502202304 74 0 1.0 4.0 0.00 0.46 0.01 62 1004.8
20260502202024 74 0 2.0 5.0 0.00 0.47 0.01 63 1004.8
20260502201302 74 0 2.0 5.0 0.00 0.48 0.01 62 1004.8
20260502200803 74 0 2.0 4.0 0.00 0.49 0.01 63 1004.9
20260502200304 74 0 1.0 4.0 0.00 0.50 0.01 63 1004.9
20260502195805 74 0 2.0 4.0 0.00 0.51 0.01 61 1004.9
20260502195305 74 0 2.0 6.0 0.00 0.51 0.01 62 1005.0
20260502194805 74 0 2.0 6.0 0.00 0.52 0.01 62 1005.0
20260502194303 74 141 2.0 6.0 0.00 0.54 0.01 62 1005.0
20260502193804 74 328 1.0 7.0 0.00 0.55 0.01 64 1005.1
20260502193303 74 323 1.0 7.0 0.00 0.56 0.01 63 1005.2
20260502192803 74 271 2.0 4.0 0.00 0.57 0.01 64 1005.3
20260502192305 74 337 2.0 4.0 0.00 0.57 0.01 64 1005.4
20260502192121 74 17 1.0 4.0 0.00 0.57 0.01 64 1005.4
20260502190804 74 334 2.0 6.0 0.00 0.57 0.01 63 1005.5
20260502190303 74 10 1.0 6.0 0.00 0.58 0.01 64 1005.6
20260502185803 74 0 1.0 4.0 0.00 0.58 0.01 65 1005.5
20260502185305 74 306 2.0 4.0 0.00 0.58 0.01 66 1005.6
20260502184803 73 0 2.0 4.0 0.00 0.58 0.01 67 1005.7
20260502184303 73 16 1.0 3.0 0.00 0.58 0.01 66 1005.8
20260502183803 73 0 0.0 1.0 0.00 0.58 0.01 65 1005.9
20260502183302 73 26 0.0 1.0 0.00 0.58 0.01 68 1005.9
20260502183023 73 117 1.0 3.0 0.00 0.58 0.01 67 1005.9
20260502182304 73 302 1.0 4.0 0.00 0.58 0.01 70 1006.0
20260502181800 73 253 1.0 6.0 0.00 0.58 0.01 67 1006.1
20260502181259 73 288 2.0 6.0 0.00 0.58 0.01 67 1006.2
20260502181023 72 294 2.0 6.0 0.00 0.58 0.01 67 1006.2
20260502180259 72 333 3.0 9.0 0.00 0.58 0.01 67 1006.3
20260502170251 70 342 2.0 7.0 0.00 0.63 0.01 71 1006.7
20260502164012 69 223 1.0 4.0 0.00 0.64 0.01 78 1006.8
20260502163508 69 305 1.0 7.0 0.00 0.64 0.01 80 1006.7
20260502162741 68 47 2.0 7.0 0.00 0.64 0.01 77 1006.7
20260502162238 68 342 1.0 5.0 0.00 0.65 0.01 78 1006.8
20260502161739 67 342 2.0 4.0 0.00 0.66 0.01 80 1006.7
20260502161457 67 17 2.0 6.0 0.00 0.67 0.01 79 1006.7
20260502160735 67 52 2.0 6.0 0.00 0.68 0.01 78 1006.7
20260502160453 67 325 2.0 9.0 0.00 0.71 0.01 82 1006.7
20260502152214 64 298 2.0 7.0 0.00 0.94 0.01 89 1006.4
20260502151714 63 281 2.0 6.0 0.00 0.94 0.01 89 1006.5
20260502151212 63 333 2.0 6.0 0.00 0.94 0.01 92 1006.5
20260502150710 62 331 2.0 6.0 0.00 0.94 0.01 92 1006.4
20260502150210 61 269 1.0 6.0 0.00 0.94 0.01 91 1006.5
20260502130641 53 0 1.0 3.0 0.00 1.42 0.01 98 1005.3
20260502130140 53 0 0.0 3.0 0.00 1.43 0.01 99 1005.4
20260502123641 52 0 0.0 1.0 0.00 1.69 0.01 98 1004.9
20260502123402 52 0 0.0 1.0 0.00 1.73 0.01 98 1004.7
20260502122642 52 0 0.0 0.0 0.00 1.78 0.01 98 1004.6
20260502122138 52 0 0.0 0.0 0.00 1.82 0.01 98 1004.7
20260502121637 52 0 0.0 0.0 0.00 1.84 0.01 98 1004.7
20260502121355 52 0 0.0 0.0 0.00 1.88 0.01 98 1004.6
20260502120854 52 0 0.0 0.0 0.00 1.90 0.01 98 1004.4
20260502120136 52 0 0.0 0.0 0.00 1.93 0.01 98 1004.4
20260502115636 52 0 0.0 0.0 0.00 1.94 0.01 98 1004.4
20260502115137 52 0 0.0 0.0 0.00 1.98 0.01 98 1004.3
20260502114857 52 0 0.0 0.0 0.00 2.11 0.01 97 1004.3
20260502114136 52 0 0.0 0.0 0.00 2.14 0.01 97 1004.3
20260502113636 52 0 0.0 0.0 0.00 2.14 0.01 97 1004.2
20260502113137 52 0 0.0 0.0 0.00 2.15 0.01 97 1004.2
20260502112636 52 0 0.0 0.0 0.00 2.15 0.01 97 1004.2
20260502112137 52 0 0.0 0.0 0.00 2.16 0.01 97 1004.0
20260502111633 52 0 0.0 0.0 0.00 2.18 0.01 97 1004.0
20260502111132 52 0 0.0 0.0 0.00 2.19 0.01 97 1003.9
20260502110633 52 0 0.0 0.0 0.00 2.20 0.01 97 1003.8
20260502110132 52 0 0.0 0.0 0.00 2.23 0.01 97 1003.7
20260502105632 52 0 0.0 0.0 0.00 2.26 0.01 97 1003.7
20260502105128 52 0 0.0 0.0 0.00 2.30 0.01 97 1003.7
20260502104629 52 0 0.0 0.0 0.00 2.33 0.01 97 1003.7
20260502104128 52 0 0.0 0.0 0.00 2.37 0.01 97 1003.6
20260502103628 52 0 0.0 0.0 0.00 2.39 0.01 97 1003.6
20260502103128 52 0 0.0 0.0 0.00 2.40 0.01 97 1003.6
20260502102628 52 0 0.0 0.0 0.00 2.40 0.01 97 1003.5
20260502102128 53 0 0.0 0.0 0.00 2.40 0.01 97 1003.4
20260502101629 53 0 0.0 0.0 0.00 2.40 0.01 97 1003.4
20260502101128 53 0 0.0 0.0 0.00 2.41 0.01 97 1003.3
20260502100628 53 0 0.0 0.0 0.00 2.42 0.01 97 1003.3
20260502100353 53 0 0.0 0.0 0.00 2.43 0.01 97 1003.2
20260502091128 53 0 0.0 1.0 0.01 2.65 0.01 97 1002.4
20260502090628 53 0 1.0 1.0 0.01 2.66 0.01 97 1002.3
20260502090129 53 0 1.0 1.0 0.01 2.67 0.01 97 1002.1
20260502080110 55 0 0.0 3.0 0.00 2.90 0.00 97 1002.0
20260502071122 55 0 1.0 3.0 0.00 2.92 0.00 97 1002.1
20260502070619 55 0 1.0 2.0 0.00 2.92 0.00 97 1002.1
20260502070118 55 0 1.0 2.0 0.00 2.92 0.00 97 1002.2
20260502065846 55 0 1.0 2.0 0.00 2.92 0.00 97 1002.2
20260502065115 55 0 1.0 5.0 0.00 2.92 0.00 97 1002.2
20260502064612 55 0 1.0 5.0 0.00 2.92 0.00 97 1002.0
20260502064112 55 0 1.0 3.0 0.00 2.92 0.00 97 1002.0
20260502063611 55 0 1.0 2.0 0.00 2.92 0.00 97 1002.0
20260502063109 55 0 1.0 3.0 0.00 2.92 0.00 97 1001.9
20260502062830 55 0 1.0 4.0 0.00 2.93 0.00 97 1001.9
20260502062103 55 0 1.0 4.0 0.00 2.93 0.00 97 1002.0
20260502061603 55 0 2.0 4.0 0.00 2.93 0.00 97 1001.9
20260502061102 55 0 2.0 5.0 0.00 2.93 0.00 97 1001.9
20260502060821 55 0 2.0 5.0 0.00 2.94 0.00 97 1001.9
20260502060100 55 0 1.0 5.0 0.00 2.94 0.00 97 1001.8
20260502055556 55 0 1.0 4.0 0.00 2.94 0.00 97 1001.9
20260502055054 55 0 2.0 5.0 0.00 2.94 0.00 97 1002.0
20260502054555 55 0 1.0 5.0 0.00 2.94 0.00 97 1001.9
20260502054053 55 0 1.0 5.0 0.00 2.94 0.00 97 1001.8
20260502053551 55 0 1.0 4.0 0.00 2.94 0.00 97 1001.9
20260502053315 55 0 1.0 4.0 0.00 2.94 0.00 97 1001.9
20260502052545 56 0 2.0 5.0 0.00 2.94 0.00 97 1001.9
20260502052043 56 0 2.0 8.0 0.00 2.94 0.00 97 1001.9
20260502051809 56 0 2.0 8.0 0.00 2.94 0.00 97 1001.9
20260502051305 56 0 1.0 4.0 0.00 2.94 0.00 98 1002.0
20260502050546 56 0 1.0 4.0 0.00 2.94 0.00 97 1001.9
20260502050040 56 0 1.0 4.0 0.00 2.94 0.00 98 1001.9
20260502045538 56 0 1.0 4.0 0.00 2.94 2.94 98 1001.8
20260502045039 56 0 2.0 5.0 0.00 2.94 2.94 98 1001.7
20260502044539 56 0 2.0 5.0 0.00 2.94 2.94 98 1001.7
20260502044034 56 0 1.0 6.0 0.00 2.94 2.94 98 1001.7
20260502043534 56 0 2.0 6.0 0.00 2.94 2.94 98 1001.7
20260502043033 56 0 2.0 5.0 0.00 2.94 2.94 98 1001.6
20260502042754 56 0 2.0 4.0 0.00 2.94 2.94 98 1001.6
20260502042034 56 0 2.0 4.0 0.00 2.94 2.94 98 1001.7
20260502041534 56 0 2.0 4.0 0.00 2.94 2.94 98 1001.7
20260502041036 56 0 2.0 6.0 0.00 2.94 2.94 98 1001.7
20260502040534 56 0 1.0 6.0 0.00 2.94 2.94 98 1001.6
20260502040034 56 0 1.0 5.0 0.00 2.94 2.94 98 1001.7
20260502035751 56 0 1.0 3.0 0.00 2.94 2.94 98 1001.7
20260502035030 56 0 2.0 4.0 0.00 2.94 2.94 98 1001.8
20260502034530 56 0 2.0 4.0 0.00 2.94 2.94 98 1001.8
20260502034251 57 15 2.0 5.0 0.00 2.94 2.94 98 1001.8
20260502033530 57 0 2.0 5.0 0.00 2.94 2.94 98 1001.8
20260502033030 57 0 1.0 4.0 0.00 2.94 2.94 98 1001.7
20260502032530 57 18 1.0 3.0 0.00 2.94 2.94 98 1001.7
20260502032029 57 0 1.0 3.0 0.00 2.94 2.94 98 1001.5
20260502031531 57 15 1.0 3.0 0.00 2.94 2.94 98 1001.5
20260502031246 56 24 1.0 4.0 0.00 2.94 2.94 98 1001.4
20260502030752 56 0 1.0 4.0 0.00 2.94 2.94 98 1001.3
20260502030245 56 13 1.0 5.0 0.00 2.94 2.94 98 1001.2
20260502025526 56 0 1.0 5.0 0.00 2.94 2.94 98 1001.0
20260502025026 56 15 1.0 3.0 0.00 2.94 2.94 98 1000.8
20260502024526 56 0 1.0 9.0 0.00 2.94 2.94 98 1000.6
20260502024026 56 13 1.0 9.0 0.00 2.94 2.94 98 1000.4
20260502023526 56 0 2.0 8.0 0.00 2.94 2.94 98 1000.0
20260502023027 57 59 1.0 5.0 0.00 2.94 2.94 98 1000.0
20260502022522 56 0 1.0 4.0 0.00 2.94 2.94 98 1000.0
20260502022023 56 0 1.0 4.0 0.01 2.94 2.94 98 1000.1
20260502021521 57 14 1.0 4.0 0.01 2.94 2.94 98 1000.1
20260502021021 57 0 1.0 3.0 0.01 2.94 2.94 98 1000.0
20260502020522 56 12 1.0 3.0 0.01 2.94 2.94 98 1000.1
20260502020022 56 346 2.0 7.0 0.01 2.94 2.94 98 1000.1
20260502015521 57 18 2.0 7.0 0.01 2.94 2.94 98 1000.0
20260502015022 57 16 2.0 4.0 0.02 2.94 2.94 98 999.9
20260502014522 57 15 2.0 4.0 0.02 2.94 2.94 98 999.8
20260502014018 57 12 2.0 9.0 0.03 2.94 2.94 98 999.7
20260502013517 57 0 2.0 9.0 0.04 2.94 2.94 97 999.4
20260502013241 57 13 2.0 5.0 0.05 2.94 2.94 98 999.4
20260502012517 57 13 2.0 5.0 0.05 2.94 2.94 98 999.4
20260502012018 57 9 1.0 4.0 0.04 2.93 2.94 98 999.8
20260502012004 57 11 1.0 4.0 0.04 2.93 2.93 98 1000.1
20260502011017 57 12 1.0 4.0 0.05 2.93 2.93 98 999.9
20260502010519 57 9 2.0 5.0 0.06 2.93 2.93 98 999.8
20260502010019 58 336 2.0 5.0 0.08 2.93 2.93 98 999.5
20260502005512 58 327 2.0 6.0 0.08 2.93 2.93 98 999.0
20260502005010 58 0 2.0 6.0 0.08 2.92 2.92 98 998.5
20260502004509 58 0 2.0 9.0 0.10 2.92 2.92 97 998.5
20260502004011 58 0 2.0 9.0 0.11 2.91 2.91 98 998.4
20260502003510 59 0 2.0 5.0 0.11 2.90 2.90 97 998.5
20260502003009 59 0 1.0 3.0 0.11 2.89 2.89 98 998.8
20260502002512 59 0 1.0 2.0 0.11 2.89 2.89 98 999.3
20260502002009 59 0 1.0 2.0 0.12 2.89 2.89 98 999.3
20260502001508 59 0 1.0 2.0 0.12 2.88 2.89 98 999.1
20260502001004 60 0 0.0 2.0 0.12 2.88 2.88 98 999.0
20260502000500 60 0 1.0 2.0 0.12 2.87 2.87 98 998.8
20260501235957 60 0 1.0 3.0 0.12 2.85 2.85 98 998.5
20260501235458 60 0 1.0 3.0 0.15 2.85 2.85 98 998.3
20260501234959 60 0 1.0 2.0 0.15 2.84 2.84 98 998.4
20260501234457 60 0 0.0 2.0 0.13 2.82 2.82 98 998.5
20260501234217 60 0 1.0 2.0 0.11 2.80 2.80 98 998.6
20260501233455 60 0 1.0 2.0 0.10 2.79 2.79 98 998.1
20260501232953 60 0 1.0 3.0 0.09 2.78 2.79 98 998.3
20260501232451 60 0 1.0 3.0 0.08 2.77 2.77 98 998.2
20260501231947 60 0 1.0 3.0 0.08 2.77 2.77 98 997.4
20260501231448 60 0 1.0 3.0 0.07 2.76 2.76 98 997.4
20260501230943 60 0 1.0 3.0 0.07 2.76 2.76 98 997.1
20260501230708 60 0 1.0 3.0 0.06 2.75 2.75 98 997.0
20260501225944 60 0 1.0 3.0 0.04 2.73 2.74 98 997.5
20260501225444 60 0 1.0 3.0 0.02 2.70 2.71 98 997.3
20260501224941 60 0 2.0 4.0 0.01 2.69 2.69 98 996.7
20260501224439 60 0 1.0 4.0 0.03 2.69 2.69 98 997.0
20260501224200 60 0 1.0 6.0 0.04 2.69 2.69 98 996.4
20260501223441 60 0 1.0 6.0 0.06 2.69 2.69 98 995.9
20260501222938 60 0 2.0 6.0 0.08 2.69 2.69 98 995.5
20260501222700 60 0 2.0 6.0 0.10 2.69 2.69 98 995.3
20260501221936 61 0 2.0 5.0 0.12 2.69 2.69 98 996.0
20260501221435 61 0 1.0 4.0 0.14 2.69 2.69 98 996.1
20260501221152 61 0 1.0 4.0 0.15 2.69 2.69 98 996.2
20260501220433 61 0 1.0 6.0 0.16 2.69 2.69 98 996.5
20260501215935 61 0 1.0 6.0 0.16 2.69 2.69 98 996.7
20260501215431 61 0 1.0 4.0 0.16 2.68 2.68 98 996.8
20260501215153 61 0 1.0 4.0 0.17 2.68 2.68 98 997.6
20260501214427 61 0 1.0 4.0 0.16 2.66 2.67 98 997.8
20260501213925 61 0 1.0 3.0 0.15 2.65 2.65 98 997.4
20260501213425 61 0 1.0 3.0 0.13 2.63 2.64 98 997.3